Regional Weather Roundup
Issued by NWS Burlington, VT

Home | Current Version | Previous Version | Text Only | Print | Product List | Glossary On
Versions: 1 2 3 4 5 6 7 8 9 10 11 12 13 14 15 16 17 18 19 20 21 22 23 24 25 26 27 28 29 30 31 32 33 34 35 36 37 38 39 40 41 42 43 44 45 46 47 48 49 50
000
ASUS41 KBTV 292330
RWRBTV
VERMONT REGIONAL WEATHER ROUNDUP
NATIONAL WEATHER SERVICE BURLINGTON VT
700 PM EDT MON MAY 29 2017

NOTE: "FAIR" INDICATES FEW OR NO CLOUDS BELOW 12,000 FEET WITH NO
SIGNIFICANT WEATHER AND/OR OBSTRUCTIONS TO VISIBILITY.

* THESE REPORTS ARE NOT UNDER NWS QUALITY CONTROL AND/OR DO NOT
  REPORT WEATHER SUCH AS PRECIPITATION AND FOG.

VTZ001>019-300000-
_____VERMONT_____


CITY           SKY/WX    TMP DP  RH WIND       PRES   REMARKS
BURLINGTON     CLOUDY    57  51  80 SE9       29.98R
MONTPELIER     CLOUDY    49  47  93 S9        30.09R
MORRISVILLE    CLOUDY    51  47  86 S8        30.04R
ST. JOHNSBURY*   N/A     51  49  92 MISG      30.03R
LYNDONVILLE*   CLOUDY    50  48  94 SE3       30.06R
MIDDLEBURY*    CLOUDY    55  49  81 SE6       30.02R
RUTLAND*       CLOUDY    52  48  86 SE13      30.05R
SPRINGFIELD    CLOUDY    51  47  86 SE3       30.09R
HIGHGATE*      LGT RAIN  54  52  94 SE10G18   29.96R
NEWPORT*       CLOUDY    50  48  92 S8        30.03R
BENNINGTON     CLOUDY    55  48  77 SE9       30.04R
SUTTON*          N/A     48 N/A N/A MISG        N/A
ISLAND POND*     N/A     48 N/A N/A E6          N/A
GALLUP MILLS*    N/A     50 N/A N/A MISG        N/A
UNION VILLAGE*   N/A     50 N/A N/A MISG        N/A
MT. MANSFIELD*   N/A     41 N/A N/A SE18        N/A

_____LAKE CHAMPLAIN_____


CITY           SKY/WX    TMP DP  RH WIND       PRES   REMARKS
BURTON ISLAND*   N/A     57  52  82 S17         N/A
COLCHESTER RF*   N/A     55  52  88 S23         N/A
DIAMOND ISL*     N/A     57  52  82 S18G24      N/A

$$

NYZ007-026>031-035-052-083-087-300000-
_____NORTHERN NEW YORK_____


CITY           SKY/WX    TMP DP  RH WIND       PRES   REMARKS
PLATTSBURGH    CLOUDY    56  52  86 S15G24    29.96R
SARANAC LAKE   CLOUDY    55  52  89 S8        29.94R
MASSENA        CLOUDY    63  59  87 S7        29.88R
OGDENSBURG*    PTSUNNY   65  58  77 S10       29.87R
POTSDAM*       SUNNY     64  61  88 S9        29.89S
STARK FALLS*     N/A     59 N/A N/A SE13        N/A
WATERTOWN      SUNNY     68  60  75 S8        29.87R
FT DRUM        MOSUNNY   63  55  77 SE14      29.89R
ALBANY         CLOUDY    57  51  80 SE8       30.03R
GLENS FALLS    CLOUDY    57  52  83 S6        30.03

$$
NHZ002-005-011-300000-
_____NEW HAMPSHIRE_____


CITY           SKY/WX    TMP DP  RH WIND       PRES   REMARKS
LEBANON        CLOUDY    52  47  83 S5        30.07R
KEENE          CLOUDY    52  48  87 NE3       30.09R
MT WASHINGTON  FOG       32  32 100 S23         N/A  VSB 1/16WCI  19
PLYMOUTH       CLOUDY    49  46  90 SE3       30.10R
WHITEFIELD     LGT RAIN  51  45  79 VRB5      30.05S

$$

_____REGIONAL QUEBEC LOCATIONS_____


CITY           SKY/WX    TMP DP  RH WIND       PRES   REMARKS
MONTREAL       DRIZZLE   55  54  94 SE16G29   29.92R
QUEBEC CITY    CLOUDY    61  45  55 SE13      30.02R
SHERBROOKE     LGT RAIN  52  48  87 E6        30.03S

_____REGIONAL ONTARIO LOCATIONS_____


CITY           SKY/WX    TMP DP  RH WIND       PRES   REMARKS
OTTAWA         CLOUDY    63  61  94 SE7       29.85S

______KEY______
VSB  - VISIBILITY IN MILES
WCI  - WIND CHILL INDEX
HX   - HEAT INDEX
$$
NNNN




USA.gov is the U.S. government's official web portal to all federal, state and local government web resources and services.